Location: Krakow
(50.0830°N, 19.9170°E)
Time: 07:44:15
(UTC+02:00)

Tiros 1 despin weight - Pass Details

Date: 20 March 2026
Orbit: 555 x 592 km, 48.2° (Epoch: 18 April)

Event Time Altitude Azimuth Distance (km) Brightness Sun altitude
Rises 07:37:14 0° 279° (W) 2,811 ? 17.0°
Reaches altitude 10° 07:39:38 10° 272° (W) 1,904 ? 17.4°
Maximum altitude 07:43:41 39° 204° (SSW) 871 ? 18.0°
Drops below altitude 10° 07:47:42 10° 135° (SE) 1,876 ? 18.6°
Sets 07:50:03 0° 127° (SE) 2,765 ? 18.9°
